| time (UTC) | temp F | wind direction | speed MPH | gust MPH | rain 1hr in | rain 24hr in | rain mn in | humidity % | barometer mb |
| 20260510023053 | 83 | 179 | 4.0 | 7.0 | 0.00 | 0.00 | 0.00 | 15 | 1002.8 |
| 20260510021554 | 84 | 202 | 3.0 | 6.0 | 0.00 | 0.00 | 0.00 | 14 | 1002.5 |
| 20260510020053 | 86 | 207 | 3.0 | 7.0 | 0.00 | 0.00 | 0.00 | 13 | 1002.4 |
| 20260510014553 | 87 | 212 | 3.0 | 6.0 | 0.00 | 0.00 | 0.00 | 13 | 1002.2 |
| 20260510013054 | 89 | 214 | 3.0 | 8.0 | 0.00 | 0.00 | 0.00 | 12 | 1002.0 |
| 20260510011556 | 90 | 360 | 4.0 | 8.0 | 0.00 | 0.00 | 0.00 | 11 | 1002.0 |
| 20260510010051 | 91 | 229 | 5.0 | 8.0 | 0.00 | 0.00 | 0.00 | 11 | 1001.9 |
| 20260510004552 | 91 | 257 | 4.0 | 10.0 | 0.00 | 0.00 | 0.00 | 10 | 1002.0 |
| 20260510003109 | 91 | 264 | 5.0 | 13.0 | 0.00 | 0.00 | 0.00 | 10 | 1001.9 |
| 20260510001549 | 91 | 276 | 8.0 | 15.0 | 0.00 | 0.00 | 0.00 | 10 | 1002.1 |
| 20260510000048 | 92 | 277 | 9.0 | 14.0 | 0.00 | 0.00 | 0.00 | 10 | 1002.0 |
| 20260509234600 | 92 | 360 | 6.0 | 12.0 | 0.00 | 0.00 | 0.00 | 10 | 1002.1 |
| 20260509233045 | 92 | 250 | 6.0 | 13.0 | 0.00 | 0.00 | 0.00 | 10 | 1002.3 |
| 20260509231552 | 93 | 268 | 7.0 | 18.0 | 0.00 | 0.00 | 0.00 | 10 | 1002.4 |
| 20260509230050 | 93 | 283 | 6.0 | 14.0 | 0.00 | 0.00 | 0.00 | 9 | 1002.6 |
| 20260509224544 | 93 | 229 | 6.0 | 13.0 | 0.00 | 0.00 | 0.00 | 10 | 1002.7 |
| 20260509223042 | 93 | 360 | 7.0 | 13.0 | 0.00 | 0.00 | 0.00 | 10 | 1003.0 |
| 20260509221540 | 92 | 238 | 7.0 | 13.0 | 0.00 | 0.00 | 0.00 | 10 | 1002.9 |
| 20260509220041 | 92 | 317 | 8.0 | 14.0 | 0.00 | 0.00 | 0.00 | 10 | 1003.4 |
| 20260509214538 | 93 | 295 | 6.0 | 10.0 | 0.00 | 0.00 | 0.00 | 11 | 1003.7 |
| 20260509213040 | 93 | 196 | 6.0 | 14.0 | 0.00 | 0.00 | 0.00 | 10 | 1003.9 |
| 20260509211537 | 92 | 360 | 9.0 | 19.0 | 0.00 | 0.00 | 0.00 | 11 | 1004.1 |
| 20260509210030 | 92 | 229 | 8.0 | 19.0 | 0.00 | 0.00 | 0.00 | 11 | 1004.4 |
| 20260509204529 | 92 | 238 | 9.0 | 17.0 | 0.00 | 0.00 | 0.00 | 12 | 1004.6 |
| 20260509203033 | 91 | 234 | 9.0 | 20.0 | 0.00 | 0.00 | 0.00 | 12 | 1005.0 |
| 20260509201522 | 90 | 283 | 9.0 | 19.0 | 0.00 | 0.00 | 0.00 | 13 | 1005.2 |
| 20260509200023 | 90 | 360 | 10.0 | 20.0 | 0.00 | 0.00 | 0.00 | 13 | 1005.4 |
| 20260509194523 | 90 | 274 | 10.0 | 19.0 | 0.00 | 0.00 | 0.00 | 13 | 1005.6 |
| 20260509193015 | 89 | 250 | 10.0 | 19.0 | 0.00 | 0.00 | 0.00 | 13 | 1005.7 |
| 20260509191515 | 90 | 257 | 9.0 | 22.0 | 0.00 | 0.00 | 0.00 | 14 | 1005.9 |
| 20260509190017 | 89 | 200 | 10.0 | 17.0 | 0.00 | 0.00 | 0.00 | 14 | 1006.0 |
| 20260509184510 | 89 | 230 | 12.0 | 21.0 | 0.00 | 0.00 | 0.00 | 15 | 1006.2 |
| 20260509183019 | 89 | 229 | 9.0 | 19.0 | 0.00 | 0.00 | 0.00 | 15 | 1006.3 |
| 20260509181508 | 89 | 360 | 10.0 | 18.0 | 0.00 | 0.00 | 0.00 | 15 | 1006.6 |
| 20260509180004 | 88 | 257 | 11.0 | 23.0 | 0.00 | 0.00 | 0.00 | 15 | 1006.8 |
| 20260509174505 | 87 | 360 | 10.0 | 20.0 | 0.00 | 0.00 | 0.00 | 17 | 1006.9 |
| 20260509173105 | 86 | 259 | 9.0 | 21.0 | 0.00 | 0.00 | 0.00 | 17 | 1007.1 |
| 20260509171601 | 86 | 220 | 10.0 | 18.0 | 0.00 | 0.00 | 0.00 | 18 | 1007.0 |
| 20260509170057 | 85 | 248 | 8.0 | 15.0 | 0.00 | 0.00 | 0.00 | 19 | 1007.0 |
| 20260509164600 | 83 | 252 | 8.0 | 16.0 | 0.00 | 0.00 | 0.00 | 22 | 1007.4 |
| 20260509163056 | 83 | 198 | 9.0 | 18.0 | 0.00 | 0.00 | 0.00 | 23 | 1007.3 |
| 20260509161548 | 82 | 206 | 6.0 | 14.0 | 0.00 | 0.00 | 0.00 | 25 | 1007.4 |
| 20260509160044 | 81 | 200 | 6.0 | 13.0 | 0.00 | 0.00 | 0.00 | 27 | 1007.7 |
| 20260509154542 | 79 | 182 | 7.0 | 13.0 | 0.00 | 0.00 | 0.00 | 30 | 1007.6 |
| 20260509153036 | 78 | 360 | 6.0 | 13.0 | 0.00 | 0.00 | 0.00 | 31 | 1007.7 |
| 20260509151532 | 76 | 217 | 7.0 | 15.0 | 0.00 | 0.00 | 0.00 | 33 | 1007.9 |
| 20260509150032 | 75 | 199 | 7.0 | 12.0 | 0.00 | 0.00 | 0.00 | 35 | 1008.1 |
| 20260509144535 | 73 | 179 | 8.0 | 13.0 | 0.00 | 0.00 | 0.00 | 37 | 1008.2 |
| 20260509143023 | 71 | 198 | 6.0 | 12.0 | 0.00 | 0.00 | 0.00 | 40 | 1008.3 |
| 20260509141519 | 70 | 192 | 6.0 | 13.0 | 0.00 | 0.00 | 0.00 | 44 | 1008.2 |
| 20260509140016 | 68 | 218 | 5.0 | 12.0 | 0.00 | 0.00 | 0.00 | 47 | 1008.2 |
| 20260509134514 | 66 | 360 | 5.0 | 9.0 | 0.00 | 0.00 | 0.00 | 50 | 1008.3 |
| 20260509133013 | 64 | 360 | 4.0 | 9.0 | 0.00 | 0.00 | 0.00 | 53 | 1008.2 |
| 20260509131511 | 63 | 231 | 4.0 | 9.0 | 0.00 | 0.00 | 0.00 | 55 | 1007.9 |
| 20260509130011 | 62 | 214 | 3.0 | 9.0 | 0.00 | 0.00 | 0.00 | 55 | 1007.8 |
| 20260509124508 | 61 | 200 | 4.0 | 9.0 | 0.00 | 0.00 | 0.00 | 55 | 1007.7 |
| 20260509123006 | 60 | 360 | 4.0 | 8.0 | 0.00 | 0.00 | 0.00 | 55 | 1007.7 |
| 20260509121505 | 61 | 209 | 3.0 | 8.0 | 0.00 | 0.00 | 0.00 | 54 | 1007.8 |
| 20260509120004 | 60 | 172 | 2.0 | 5.0 | 0.00 | 0.00 | 0.00 | 54 | 1007.7 |
| 20260509114503 | 60 | 163 | 3.0 | 5.0 | 0.00 | 0.00 | 0.00 | 55 | 1007.8 |
| 20260509113001 | 59 | 123 | 2.0 | 6.0 | 0.00 | 0.00 | 0.00 | 57 | 1007.4 |
| 20260509111501 | 59 | 360 | 1.0 | 4.0 | 0.00 | 0.00 | 0.00 | 57 | 1007.4 |
| 20260509110100 | 58 | 360 | 1.0 | 4.0 | 0.00 | 0.00 | 0.00 | 56 | 1007.4 |
| 20260509104558 | 59 | 360 | 2.0 | 5.0 | 0.00 | 0.00 | 0.00 | 54 | 1007.5 |
| 20260509103052 | 59 | 110 | 3.0 | 5.0 | 0.00 | 0.00 | 0.00 | 52 | 1007.2 |
| 20260509101553 | 61 | 360 | 4.0 | 7.0 | 0.00 | 0.00 | 0.00 | 49 | 1006.9 |
| 20260509100047 | 63 | 360 | 3.0 | 5.0 | 0.00 | 0.00 | 0.00 | 44 | 1006.7 |
| 20260509094546 | 64 | 100 | 2.0 | 8.0 | 0.00 | 0.00 | 0.00 | 42 | 1006.2 |
| 20260509093054 | 63 | 360 | 5.0 | 9.0 | 0.00 | 0.00 | 0.00 | 45 | 1006.2 |
| 20260509091543 | 61 | 360 | 2.0 | 6.0 | 0.00 | 0.00 | 0.00 | 48 | 1006.1 |
| 20260509090039 | 62 | 295 | 2.0 | 8.0 | 0.00 | 0.00 | 0.00 | 48 | 1006.3 |
| 20260509084544 | 62 | 297 | 5.0 | 8.0 | 0.00 | 0.00 | 0.00 | 46 | 1006.2 |
| 20260509083029 | 63 | 271 | 6.0 | 9.0 | 0.00 | 0.00 | 0.00 | 45 | 1006.2 |
| 20260509081535 | 64 | 360 | 5.0 | 8.0 | 0.00 | 0.00 | 0.00 | 44 | 1006.4 |
| 20260509080030 | 64 | 284 | 6.0 | 8.0 | 0.00 | 0.00 | 0.00 | 44 | 1006.4 |
| 20260509074515 | 65 | 290 | 6.0 | 9.0 | 0.00 | 0.00 | 0.00 | 43 | 1006.7 |
| 20260509073009 | 65 | 283 | 4.0 | 8.0 | 0.00 | 0.00 | 0.00 | 42 | 1006.7 |
| 20260509071506 | 65 | 267 | 5.0 | 10.0 | 0.00 | 0.00 | 0.00 | 42 | 1006.8 |
| 20260509070004 | 65 | 269 | 5.0 | 7.0 | 0.00 | 0.00 | 0.00 | 42 | 1006.9 |
| 20260509064617 | 66 | 360 | 4.0 | 8.0 | 0.00 | 0.00 | 0.00 | 41 | 1007.0 |
| 20260509063055 | 67 | 360 | 4.0 | 8.0 | 0.00 | 0.00 | 0.00 | 39 | 1006.9 |
| 20260509061546 | 68 | 243 | 4.0 | 8.0 | 0.00 | 0.00 | 0.00 | 36 | 1007.0 |
| 20260509060044 | 68 | 219 | 2.0 | 5.0 | 0.00 | 0.00 | 0.00 | 35 | 1007.1 |
| 20260509054541 | 69 | 134 | 2.0 | 5.0 | 0.00 | 0.00 | 0.00 | 30 | 1007.4 |
| 20260509053042 | 71 | 132 | 2.0 | 4.0 | 0.00 | 0.00 | 0.00 | 28 | 1007.6 |
| 20260509051541 | 71 | 131 | 1.0 | 4.0 | 0.00 | 0.00 | 0.00 | 26 | 1007.6 |
| 20260509050044 | 72 | 133 | 2.0 | 6.0 | 0.00 | 0.00 | 0.00 | 26 | 1007.6 |
| 20260509044539 | 72 | 186 | 2.0 | 5.0 | 0.00 | 0.00 | 0.00 | 25 | 1007.8 |
| 20260509043040 | 72 | 50 | 1.0 | 7.0 | 0.00 | 0.00 | 0.00 | 25 | 1007.6 |
| 20260509041538 | 70 | 31 | 5.0 | 10.0 | 0.00 | 0.00 | 0.00 | 26 | 1007.5 |
| 20260509040041 | 67 | 59 | 4.0 | 14.0 | 0.00 | 0.00 | 0.00 | 27 | 1007.2 |
| 20260509034542 | 72 | 290 | 3.0 | 4.0 | 0.00 | 0.00 | 0.00 | 24 | 1006.6 |
| 20260509033036 | 73 | 360 | 4.0 | 7.0 | 0.00 | 0.00 | 0.00 | 21 | 1006.5 |
| 20260509031536 | 74 | 290 | 4.0 | 6.0 | 0.00 | 0.00 | 0.00 | 20 | 1006.2 |
| 20260509030035 | 75 | 295 | 3.0 | 5.0 | 0.00 | 0.00 | 0.00 | 19 | 1006.1 |
| 20260509024534 | 77 | 295 | 2.0 | 3.0 | 0.00 | 0.00 | 0.00 | 17 | 1005.9 |